Location: Tarnow
(50.0031°N, 20.9833°E)
Time: 03:18:57
(UTC+02:00)

ISS - Visible Passes

Search period start: 23 September 2018 00:00
Search period end: 03 October 2018 00:00
Orbit: 403 x 408 km, 51.6° (Epoch: 23 September)

Date Brightness Start Highest point End Pass type
(mag) Time Alt. Az. Time Alt. Az. Time Alt. Az.
23 Sep -2.2 19:36:30 10° S 19:38:55 19° SE 19:39:38 18° ESE visible
23 Sep -1.1 21:11:45 10° WSW 21:12:21 14° WSW 21:12:21 14° WSW visible
24 Sep -3.5 20:19:58 10° SW 20:22:54 50° S 20:22:54 50° S visible
25 Sep -3.0 19:28:21 10° SW 19:31:23 35° SSE 19:33:18 18° E visible
25 Sep -1.7 21:04:27 10° W 21:05:59 25° W 21:05:59 25° W visible
26 Sep -3.9 20:12:31 10° WSW 20:15:49 85° SSE 20:16:15 64° E visible
27 Sep -3.7 19:20:39 10° WSW 19:23:55 61° SSE 19:26:26 16° ENE visible
27 Sep -2.0 20:57:10 10° W 20:59:07 31° WNW 20:59:07 31° WNW visible
28 Sep -3.7 20:05:10 10° W 20:08:29 72° N 20:09:12 49° ENE visible
28 Sep -0.3 21:41:51 10° WNW 21:41:52 10° WNW 21:41:52 10° WNW visible
29 Sep -3.8 19:13:10 10° WSW 19:16:29 87° NNW 19:19:14 14° ENE visible
29 Sep -2.1 20:49:51 10° WNW 20:51:54 34° WNW 20:51:54 34° WNW visible
30 Sep -3.6 19:57:50 10° W 20:01:07 63° N 20:01:54 45° ENE visible
30 Sep -0.3 21:34:25 10° WNW 21:34:34 11° WNW 21:34:34 11° WNW visible
01 Oct -3.6 19:05:47 10° W 19:09:04 68° N 19:11:53 14° ENE visible
01 Oct -2.3 20:42:26 10° WNW 20:44:32 36° WNW 20:44:32 36° WNW visible
02 Oct -3.7 19:50:25 10° WNW 19:53:43 67° N 19:54:30 46° ENE visible
02 Oct -0.4 21:26:59 10° WNW 21:27:09 11° WNW 21:27:09 11° WNW visible
